User: anonymous   Login
Location: Unspecified
(0.0000°N, 0.0000°E)
Time: 22:51:16
(UTC+01:00)
Language:

Cosmos 540 Rocket - Orbit

View from above orbital plane
View from above orbital plane
View from above satellite
View from above satellite

Ground track
Ground track

The orbit data is extracted from the following two-line orbital elements,

1  6324U 72104B   17328.01070553 -.00000032 +00000-0 -16605-5 0  9991
2  6324 074.0751 169.7832 0010196 268.5031 091.4958 14.43390839358364
Epoch (UTC): 24 November 2017 00:15:24
Eccentricity: 0.0010196
inclination: 74.0751°
perigee height: 740 km
apogee height: 754 km
right ascension of ascending node: 169.7832°
argument of perigee: 268.5031°
revolutions per day: 14.43390839
mean anomaly at epoch: 91.4958°
orbit number at epoch: 35836

The dashed part of the orbit path shows where the satellite is in the earth's shadow,  

DLR